Glendale Luke AFB, AZ

10:37 AM MST on September 16, 2019 (GMT -0700)
Luke Air Force Base

Weather History for KLUF - July, 2019

Change the Weather History Date:

Monday, July 15, 2019

  Actual Average Record
Temperature  
Mean Temperature 97 °F -  
Max Temperature 111 °F 107 °F 118 °F (1998)
Min Temperature 83 °F 77 °F 63 °F (1944)
Cooling Degree Days 32    
Growing Degree Days 47 (Base 50)    
Moisture  
Dew Point 55 °F    
Average Humidity 25    
Maximum Humidity 45    
Minimum Humidity 13    
Precipitation  
Precipitation 0.00 in - - ()
Sea Level Pressure  
Sea Level Pressure 29.73 in    
Wind  
Wind Speed 5 mph (WSW)    
Max Wind Speed 13 mph    
Max Gust Speed 20 mph    
Visibility 10 miles    
Events      
Averages and records for this station are not official NWS values.
T = Trace of Precipitation, MM = Missing Value Source: NWS Daily Summary

Daily Weather History Graph

Daily Weather History Graph

Search for Another Location

Airport or City:

Astronomy

Jul. 15, 2019 Rise Set
Actual Time 5:30 AM MST 7:40 PM MST
Civil Twilight 5:02 AM MST 8:08 PM MST
Nautical Twilight 4:27 AM MST 8:42 PM MST
Astronomical Twilight 3:50 AM MST 9:20 PM MST
Moon 6:59 PM MST (7/15) 4:21 AM MST (7/15)
Length of Visible Light 15h 06m
Length of Day
14h 09m
Waxing Gibbous, 99% of the Moon is Illuminated
Jul 15
Waxing Gibbous
Jul 16
Full
Jul 24
Last Quarter
Jul 31
New
Aug 7
First Quarter

Hourly Weather History & Observations

Time (MST) Temp. Heat Index Dew Point Humidity Pressure Visibility Wind Dir Wind Speed Gust Speed Precip Events Conditions
12:58 AM 94.3 °F 92.7 °F 56.1 °F 28% 29.79 in 10.0 mi SE 5.8 mph - N/A   Clear
1:58 AM 91.2 °F 90.2 °F 58.1 °F 33% 29.78 in 10.0 mi SSE 3.5 mph - N/A   Clear
2:58 AM 86.9 °F 86.5 °F 59.5 °F 40% 29.78 in 10.0 mi NNW 3.5 mph - N/A   Clear
3:58 AM 85.3 °F 85.4 °F 60.8 °F 44% 29.78 in 10.0 mi Calm Calm - N/A   Clear
4:58 AM 85.1 °F 85.4 °F 61.3 °F 45% 29.79 in 10.0 mi NW 3.5 mph - N/A   Clear
5:58 AM 83.8 °F 83.8 °F 59.5 °F 44% 29.81 in 10.0 mi Calm Calm - N/A   Clear
6:58 AM 90.5 °F 90.4 °F 60.6 °F 37% 29.81 in 10.0 mi NW 3.5 mph - N/A   Clear
7:58 AM 94.1 °F 93.9 °F 59.7 °F 32% 29.81 in 10.0 mi North 5.8 mph - N/A   Clear
8:58 AM 96.8 °F 96.7 °F 59.2 °F 29% 29.81 in 10.0 mi Calm Calm - N/A   Clear
9:58 AM 99.9 °F 99.9 °F 58.8 °F 26% 29.80 in 10.0 mi Calm Calm - N/A   Clear
10:58 AM 102.0 °F 102.2 °F 58.3 °F 24% 29.79 in 10.0 mi Calm Calm - N/A   Clear
11:58 AM 105.8 °F 105.5 °F 56.3 °F 20% 29.77 in 10.0 mi Calm Calm - N/A   Partly Cloudy
12:58 PM 107.1 °F 107.4 °F 57.4 °F 20% 29.74 in 10.0 mi Calm Calm - N/A   Mostly Cloudy
1:58 PM 108.5 °F 108.1 °F 55.6 °F 18% 29.71 in 10.0 mi SSE 10.4 mph - N/A   Clear
2:58 PM 111.6 °F 110.0 °F 53.1 °F 15% 29.67 in 10.0 mi South 8.1 mph 19.6 mph N/A   Partly Cloudy
3:58 PM 111.4 °F - 51.1 °F 14% 29.65 in 10.0 mi SSW 9.2 mph - N/A   Partly Cloudy
4:58 PM 111.7 °F - 51.3 °F 14% 29.63 in 10.0 mi SW 10.4 mph - N/A   Clear
5:58 PM 111.0 °F - 48.7 °F 13% 29.61 in 10.0 mi SSW 12.7 mph 18.4 mph N/A   Clear
6:58 PM 109.2 °F - 49.5 °F 14% 29.62 in 10.0 mi WSW 10.4 mph - N/A   Clear
7:58 PM 106.5 °F - 49.1 °F 15% 29.63 in 10.0 mi SW 11.5 mph - N/A   Clear
8:58 PM 102.4 °F - 52.2 °F 19% 29.65 in 10.0 mi WSW 9.2 mph - N/A   Clear
9:58 PM 101.5 °F - 51.4 °F 19% 29.66 in 10.0 mi WSW 11.5 mph - N/A   Clear
10:58 PM 100.2 °F - 48.9 °F 18% 29.66 in 10.0 mi West 9.2 mph - N/A   Clear
11:58 PM 99.0 °F - 48.0 °F 18% 29.66 in 9.0 mi West 8.1 mph - N/A   Clear